2022-085B

Last updated on Tue Jul 26 2022 00:02:04 GMT+0000 (Coordinated Universal Time)

1 53240U 22085B 22206.79028410 .01389727 76683-5 51090-3 0 9994 2 53240 41.4818 343.2392 0079905 177.1649 182.9682 16.15657795 247

Satellite not in orbit